Location: Newark
(44.2003°N, 3.2583°E)
Time: 10:58:23
(UTC+00:00)

Vanguard 1 - All Passes

Search period start: 14 October 2019 00:00
Search period end: 24 October 2019 00:00
Orbit: 653 x 3830 km, 34.3° (Epoch: 13 October)

Date Brightness Start Highest point End Pass type
(mag) Time Alt. Az. Time Alt. Az. Time Alt. Az.
14 Oct - 01:15:21 10° W 01:33:35 46° SSW 01:54:41 10° SE visible
14 Oct - 03:42:21 10° W 03:56:59 22° SW 04:11:18 10° S visible
14 Oct - 18:36:14 10° SSW 18:44:28 31° SE 18:57:40 10° E visible
14 Oct - 20:53:46 10° WSW 21:05:38 57° SSE 21:25:51 10° E visible
14 Oct - 23:14:05 10° W 23:29:47 59° S 23:52:22 10° ESE visible
15 Oct - 01:36:50 10° W 01:54:35 40° SSW 02:14:44 10° SSE visible
15 Oct - 04:06:31 10° W 04:17:26 16° SW 04:28:10 10° SSW visible
15 Oct - 18:56:14 10° SSW 19:04:55 37° SSE 19:19:34 10° E visible
15 Oct - 21:14:30 10° WSW 21:26:42 59° S 21:47:23 10° E visible
15 Oct - 23:35:09 10° W 23:51:01 55° SSW 00:13:19 10° SE visible
16 Oct - 01:58:33 10° W 02:15:28 34° SW 02:34:21 10° SSE visible
16 Oct - 17:02:17 10° SSE 17:06:27 14° SE 17:11:41 10° ESE daylight
16 Oct - 19:16:29 10° SW 19:25:32 44° SSE 19:41:18 10° E visible
16 Oct - 21:35:19 10° WSW 21:47:51 60° S 22:08:50 10° ESE visible
16 Oct - 23:56:17 10° W 00:12:14 50° SSW 00:34:00 10° SE visible
17 Oct - 02:20:40 10° W 02:36:16 27° SW 02:53:23 10° S visible
17 Oct - 17:20:56 10° S 17:26:36 20° SE 17:34:40 10° E visible
17 Oct - 19:36:56 10° SW 19:46:17 49° SSE 20:02:57 10° E visible
17 Oct - 21:56:12 10° WSW 22:09:01 58° S 22:30:10 10° ESE visible
18 Oct - 00:17:32 10° W 00:33:21 44° SSW 00:54:24 10° SE visible
18 Oct - 02:43:27 10° W 02:56:59 21° SW 03:11:33 10° S visible
18 Oct - 17:40:27 10° SSW 17:46:53 26° SE 17:56:52 10° E visible
18 Oct - 19:57:31 10° WSW 20:07:10 53° SSE 20:24:32 10° E visible
18 Oct - 22:17:08 10° W 22:30:13 56° S 22:51:20 10° ESE visible
19 Oct - 00:38:57 10° W 00:54:25 38° SSW 01:14:25 10° SSE visible
19 Oct - 03:07:41 10° WSW 03:17:38 15° SW 03:28:06 10° SSW visible
19 Oct - 18:00:24 10° SSW 18:07:19 33° SSE 18:18:44 10° E visible
19 Oct - 20:18:12 10° WSW 20:28:08 55° S 20:46:03 10° ESE visible
19 Oct - 22:38:08 10° W 22:51:24 52° SSW 23:12:18 10° SE visible
20 Oct - 01:00:37 10° W 01:15:25 32° SW 01:33:58 10° SSE visible
20 Oct - 16:08:45 10° SE 16:09:17 10° SE 16:09:50 10° SE daylight
20 Oct - 18:20:37 10° SW 18:27:53 39° SSE 18:40:25 10° E visible
20 Oct - 20:38:59 10° WSW 20:49:11 56° S 21:07:29 10° ESE visible
20 Oct - 22:59:13 10° W 23:12:34 47° SSW 23:33:00 10° SE visible
21 Oct - 01:22:43 10° W 01:36:20 25° SW 01:52:52 10° S visible
21 Oct - 16:25:35 10° S 16:29:29 16° SE 16:34:31 10° ESE daylight
21 Oct - 18:41:03 10° SW 18:48:35 44° SSE 19:01:59 10° E visible
21 Oct - 20:59:49 10° WSW 21:10:17 55° S 21:28:48 10° ESE visible
21 Oct - 23:20:25 10° W 23:33:42 41° SSW 23:53:22 10° SE visible
22 Oct - 01:45:34 10° W 01:57:13 19° SW 02:10:47 10° S visible
22 Oct - 16:44:54 10° S 16:49:47 21° SE 16:56:49 10° E daylight
22 Oct - 19:01:37 10° WSW 19:09:24 48° SSE 19:23:30 10° E visible
22 Oct - 21:20:42 10° W 21:31:24 52° S 21:49:58 10° ESE visible
22 Oct - 23:41:49 10° W 23:54:48 35° SSW 00:13:20 10° SSE visible
23 Oct - 02:10:15 10° WSW 02:18:04 13° SW 02:26:41 10° SSW visible
23 Oct - 17:04:47 10° SSW 17:10:13 28° SSE 17:18:39 10° E visible
23 Oct - 19:22:16 10° WSW 19:30:18 51° S 19:44:57 10° ESE visible
23 Oct - 21:41:40 10° W 21:52:31 47° SSW 22:10:54 10° SE visible
